• In France
  • List of Countries
  • For 7 days
  • Water Temperature
  • Satellite Maps
  • Weather Map
  • Weather Widgets
  • user-avatar
    Login

    Hourly Weather Jeziorko

    Today, 15 October, Monday

    Time Temperature Precipitation Wind Pressure Humidity
    00:00 +14°C° 0 mm 4 mps 756 mmHg 62%
    01:00 +13°C° 0 mm 4 mps 756 mmHg 64%
    02:00 +13°C° 0 mm 4 mps 756 mmHg 65%
    03:00 +13°C° 0 mm 4 mps 756 mmHg 66%
    04:00 +13°C° 0 mm 4 mps 756 mmHg 67%
    05:00 +13°C° 0 mm 4 mps 756 mmHg 67%
    06:00 +13°C° 0 mm 4 mps 756 mmHg 67%
    07:00 +13°C° 0 mm 4 mps 756 mmHg 68%
    08:00 +15°C° 0 mm 4 mps 756 mmHg 59%
    09:00 +17°C° 0 mm 5 mps 756 mmHg 50%
    10:00 +20°C° 0 mm 5 mps 756 mmHg 42%
    11:00 +21°C° 0 mm 5 mps 756 mmHg 39%
    12:00 +22°C° 0 mm 5 mps 756 mmHg 36%
    13:00 +23°C° 0 mm 5 mps 756 mmHg 33%
    14:00 +22°C° 0 mm 4 mps 756 mmHg 36%
    15:00 +21°C° 0 mm 3 mps 755 mmHg 40%
    16:00 +21°C° 0 mm 3 mps 755 mmHg 43%
    17:00 +19°C° 0 mm 3 mps 755 mmHg 46%
    18:00 +18°C° 0 mm 3 mps 755 mmHg 49%
    19:00 +17°C° 0 mm 3 mps 755 mmHg 52%
    20:00 +16°C° 0 mm 3 mps 755 mmHg 52%
    21:00 +16°C° 0 mm 3 mps 755 mmHg 52%
    22:00 +14°C° 0 mm 3 mps 755 mmHg 52%
    23:00 +14°C° 0 mm 3 mps 755 mmHg 52%

    Tomorrow, 16 October, Tuesday

    Time Temperature Precipitation Wind Pressure Humidity
    00:00 +14°C° 0 mm 3 mps 755 mmHg 52%
    01:00 +13°C° 0 mm 3 mps 755 mmHg 52%
    02:00 +13°C° 0 mm 3 mps 755 mmHg 52%
    03:00 +14°C° 0 mm 2 mps 755 mmHg 53%
    04:00 +13°C° 0 mm 2 mps 755 mmHg 54%
    05:00 +13°C° 0 mm 2 mps 755 mmHg 55%
    06:00 +13°C° 0 mm 2 mps 756 mmHg 55%
    07:00 +13°C° 0 mm 2 mps 756 mmHg 55%
    08:00 +14°C° 0 mm 3 mps 756 mmHg 51%
    09:00 +17°C° 0 mm 3 mps 756 mmHg 46%
    10:00 +19°C° 0 mm 3 mps 756 mmHg 41%
    11:00 +20°C° 0 mm 4 mps 756 mmHg 38%
    12:00 +21°C° 0 mm 4 mps 756 mmHg 36%
    13:00 +22°C° 0 mm 4 mps 756 mmHg 33%
    14:00 +21°C° 0 mm 3 mps 755 mmHg 36%
    15:00 +21°C° 0 mm 3 mps 755 mmHg 39%
    16:00 +20°C° 0 mm 2 mps 755 mmHg 41%
    17:00 +19°C° 0 mm 2 mps 755 mmHg 43%
    18:00 +18°C° 0 mm 3 mps 756 mmHg 45%
    19:00 +16°C° 0 mm 3 mps 756 mmHg 47%
    20:00 +16°C° 0 mm 3 mps 756 mmHg 48%
    21:00 +16°C° 0 mm 3 mps 756 mmHg 48%
    22:00 +14°C° 0 mm 3 mps 756 mmHg 49%
    23:00 +14°C° 0 mm 3 mps 756 mmHg 50%

    Day after tomorrow, 17 October, Wednesday

    Time Temperature Precipitation Wind Pressure Humidity
    00:00 +15°C° 0 mm 2 mps 756 mmHg 52%
    01:00 +15°C° 0 mm 2 mps 756 mmHg 53%
    02:00 +15°C° 0 mm 2 mps 756 mmHg 55%
    03:00 +14°C° 0 mm 2 mps 756 mmHg 57%
    04:00 +14°C° 0 mm 2 mps 756 mmHg 59%
    05:00 +14°C° 0 mm 2 mps 756 mmHg 60%
    06:00 +14°C° 0 mm 2 mps 756 mmHg 61%
    07:00 +14°C° 0 mm 2 mps 756 mmHg 62%
    08:00 +15°C° 0 mm 2 mps 756 mmHg 57%
    09:00 +17°C° 0 mm 3 mps 756 mmHg 52%
    10:00 +19°C° 0 mm 3 mps 756 mmHg 46%
    11:00 +20°C° 0 mm 3 mps 756 mmHg 43%
    12:00 +21°C° 0 mm 3 mps 756 mmHg 41%
    13:00 +22°C° 0 mm 3 mps 756 mmHg 38%
    14:00 +23°C° 0 mm 2 mps 755 mmHg 41%
    15:00 +21°C° 0 mm 2 mps 755 mmHg 43%
    16:00 +20°C° 0 mm 2 mps 755 mmHg 46%
    17:00 +19°C° 0 mm 2 mps 755 mmHg 48%
    18:00 +19°C° 0 mm 2 mps 755 mmHg 50%
    19:00 +18°C° 0 mm 2 mps 755 mmHg 53%
    20:00 +17°C° 0 mm 2 mps 755 mmHg 54%
    21:00 +17°C° 0 mm 2 mps 755 mmHg 55%
    22:00 +18°C° 0 mm 1 mps 756 mmHg 55%
    23:00 +16°C° 0 mm 1 mps 755 mmHg 56%

    18 October, Thursday

    Time Temperature Precipitation Wind Pressure Humidity
    00:00 +16°C° 0 mm 1 mps 755 mmHg 56%
    01:00 +16°C° 0 mm 1 mps 755 mmHg 56%
    02:00 +16°C° 0 mm 1 mps 755 mmHg 57%
    03:00 +15°C° 0 mm 1 mps 755 mmHg 57%
    04:00 +15°C° 0 mm 1 mps 755 mmHg 58%
    05:00 +15°C° 0 mm 1 mps 755 mmHg 59%
    06:00 +15°C° 0 mm 1 mps 755 mmHg 59%
    07:00 +15°C° 0 mm 1 mps 755 mmHg 60%
    08:00 +16°C° 0 mm 1 mps 755 mmHg 56%
    09:00 +16°C° 0 mm 0 mps 755 mmHg 52%
    10:00 +18°C° 0 mm 0 mps 755 mmHg 49%
    11:00 +20°C° 0 mm 1 mps 755 mmHg 47%
    12:00 +21°C° 0 mm 1 mps 755 mmHg 45%
    13:00 +22°C° 0 mm 1 mps 755 mmHg 44%
    14:00 +22°C° 0 mm 1 mps 755 mmHg 46%
    15:00 +21°C° 0 mm 1 mps 754 mmHg 49%
    16:00 +21°C° 0 mm 1 mps 754 mmHg 52%
    17:00 +20°C° 0 mm 1 mps 755 mmHg 55%
    18:00 +18°C° 0 mm 1 mps 755 mmHg 58%
    19:00 +16°C° 0 mm 1 mps 755 mmHg 61%
    20:00 +16°C° 0 mm 1 mps 755 mmHg 63%
    21:00 +15°C° 0 mm 1 mps 755 mmHg 66%
    22:00 +15°C° 0 mm 1 mps 755 mmHg 68%
    23:00 +15°C° 0 mm 1 mps 756 mmHg 70%

    19 October, Friday

    Time Temperature Precipitation Wind Pressure Humidity
    00:00 +14°C° 0 mm 1 mps 756 mmHg 73%
    01:00 +14°C° 0 mm 1 mps 756 mmHg 75%
    02:00 +13°C° 0 mm 1 mps 756 mmHg 78%
    03:00 +13°C° 0 mm 2 mps 756 mmHg 81%
    04:00 +12°C° 0 mm 2 mps 756 mmHg 84%
    05:00 +12°C° 0 mm 2 mps 756 mmHg 85%
    06:00 +12°C° 0 mm 2 mps 756 mmHg 87%
    07:00 +12°C° 0 mm 2 mps 756 mmHg 88%
    08:00 +13°C° 0 mm 2 mps 756 mmHg 81%
    09:00 +15°C° 0 mm 2 mps 756 mmHg 74%
    10:00 +16°C° 0 mm 2 mps 756 mmHg 67%
    11:00 +17°C° 0 mm 2 mps 756 mmHg 64%
    12:00 +18°C° 0 mm 3 mps 756 mmHg 60%
    13:00 +19°C° 0 mm 3 mps 756 mmHg 57%
    14:00 +18°C° 0 mm 3 mps 756 mmHg 60%
    15:00 +18°C° 0 mm 3 mps 756 mmHg 63%
    16:00 +17°C° 0 mm 3 mps 756 mmHg 66%
    17:00 +17°C° 0 mm 3 mps 756 mmHg 70%
    18:00 +16°C° 0 mm 2 mps 756 mmHg 74%
    19:00 +15°C° 0 mm 2 mps 757 mmHg 77%
    20:00 +15°C° 0 mm 2 mps 757 mmHg 77%
    21:00 +14°C° 0 mm 2 mps 757 mmHg 76%
    22:00 +13°C° 0 mm 3 mps 757 mmHg 75%
    23:00 +13°C° 0 mm 2 mps 757 mmHg 76%

    20 October, Saturday

    Time Temperature Precipitation Wind Pressure Humidity
    00:00 +12°C° 0 mm 2 mps 757 mmHg 76%
    01:00 +10°C° 0 mm 2 mps 757 mmHg 76%
    02:00 +10°C° 0 mm 2 mps 757 mmHg 78%
    03:00 +9°C° 0 mm 3 mps 757 mmHg 81%
    04:00 +8°C° 0 mm 3 mps 758 mmHg 83%
    05:00 +7°C° 0 mm 3 mps 758 mmHg 85%
    06:00 +7°C° 0 mm 3 mps 758 mmHg 87%
    07:00 +5°C° 0 mm 3 mps 758 mmHg 89%
    08:00 +8°C° 0 mm 3 mps 759 mmHg 82%
    09:00 +9°C° 0 mm 3 mps 759 mmHg 76%
    10:00 +10°C° 0 mm 4 mps 759 mmHg 69%
    11:00 +11°C° 0 mm 4 mps 759 mmHg 66%
    12:00 +12°C° 0 mm 4 mps 759 mmHg 64%
    13:00 +13°C° 0 mm 4 mps 759 mmHg 61%
    14:00 +12°C° 0 mm 4 mps 759 mmHg 61%
    15:00 +12°C° 0 mm 4 mps 759 mmHg 62%
    16:00 +12°C° 0 mm 4 mps 759 mmHg 62%
    17:00 +11°C° 0 mm 4 mps 759 mmHg 63%
    18:00 +11°C° 0 mm 4 mps 760 mmHg 64%
    19:00 +10°C° 0 mm 4 mps 760 mmHg 65%
    20:00 +9°C° 0 mm 3 mps 760 mmHg 69%
    21:00 +8°C° 0 mm 3 mps 761 mmHg 73%
    22:00 +8°C° 0 mm 3 mps 761 mmHg 77%
    23:00 +8°C° 0 mm 3 mps 761 mmHg 78%
    Show more